SIILIN Weather Reports


time (UTC)temp
C
wind
direction
speed
KPH
gust
KPH
rain 1hr
cm
rain 24hr
cm
rain mn
cm
humidity
%
barometer
mb
20260506090723 6 260 30.6 41.8 0.00 0.00 0.00 38 1011.6
20260506084724 6 242 25.7 35.4 0.00 0.00 0.00 40 1011.6
20260506082724 6 259 25.7 41.8 0.00 0.00 0.00 42 1011.5
20260506080723 6 272 27.4 40.2 0.00 0.00 0.00 41 1011.5
20260506072724 5 253 25.7 37.0 0.00 0.00 0.00 49 1011.2
20260506070723 5 261 30.6 38.6 0.00 0.00 0.00 43 1010.9
20260506060723 4 255 19.3 25.7 0.00 0.00 0.00 56 1010.8
20260506050723 3 249 14.5 17.7 0.00 0.00 0.00 70 1010.3
20260506044723 2 227 16.1 19.3 0.00 0.00 0.00 75 1010.2
20260506042723 2 227 14.5 17.7 0.00 0.00 0.00 78 1010.0
20260506040722 2 233 16.1 20.9 0.00 0.00 0.00 77 1009.8
20260506034723 2 233 17.7 22.5 0.00 0.00 0.00 78 1009.6
20260506032722 2 232 17.7 20.9 0.00 0.00 0.00 80 1009.3
20260506030723 1 232 17.7 22.5 0.00 0.00 0.00 81 1009.1
20260506024722 2 0.0 0.0 0.00 0.00 0.00 81 1008.9
20260506022722 2 0.0 0.0 0.00 0.00 0.00 82 1008.6
20260506020722 2 255 19.3 24.1 0.00 0.00 0.00 82 1008.4
20260506014722 2 248 19.3 27.4 0.00 0.00 0.00 82 1008.3
20260506012722 2 234 19.3 22.5 0.00 0.00 0.00 84 1008.3
20260506010722 2 235 19.3 22.5 0.00 0.00 0.00 84 1008.1
20260506004722 2 224 17.7 22.5 0.00 0.00 0.00 85 1007.7
20260506002722 2 231 19.3 25.7 0.00 0.00 0.00 82 1007.7
20260506000722 2 232 16.1 20.9 0.00 0.00 0.00 80 1007.6
20260505234722 2 232 14.5 19.3 0.00 0.00 0.00 80 1007.5
20260505232722 2 233 17.7 22.5 0.00 0.00 0.00 78 1007.5
20260505230722 2 227 14.5 19.3 0.00 0.00 0.00 75 1007.5
20260505224722 3 240 19.3 22.5 0.00 0.00 0.00 73 1007.4
20260505222721 3 253 20.9 24.1 0.00 0.00 0.00 73 1007.3
20260505220722 3 250 17.7 24.1 0.00 0.00 0.00 70 1007.3
20260505214722 3 248 22.5 25.7 0.00 0.00 0.00 68 1007.2
20260505212722 3 253 20.9 25.7 0.00 0.00 0.00 66 1007.1
20260505210721 3 257 22.5 27.4 0.00 0.00 0.00 67 1006.9
20260505204721 4 258 22.5 27.4 0.00 0.00 0.00 65 1006.7
20260505202722 4 263 24.1 30.6 0.00 0.00 0.00 59 1006.5
20260505200721 4 268 24.1 30.6 0.00 0.00 0.00 60 1006.4
20260505194721 5 255 19.3 27.4 0.00 0.00 0.00 56 1006.3
20260505192721 5 261 24.1 32.2 0.00 0.00 0.00 53 1006.2
20260505190721 5 263 24.1 30.6 0.00 0.00 0.00 54 1006.0
20260505184721 6 265 24.1 30.6 0.00 0.00 0.00 51 1005.8
20260505182721 6 261 22.5 32.2 0.00 0.00 0.00 50 1005.5
20260505180721 6 256 24.1 29.0 0.00 0.00 0.00 52 1005.2
20260505174720 6 258 29.0 35.4 0.00 0.00 0.00 47 1005.0
20260505172720 7 260 29.0 35.4 0.00 0.00 0.00 46 1004.9
20260505170720 7 257 30.6 37.0 0.00 0.00 0.00 47 1004.8
20260505164720 7 263 29.0 35.4 0.00 0.00 0.00 46 1004.7
20260505162720 7 252 29.0 35.4 0.00 0.00 0.00 47 1004.5
20260505160720 7 266 25.7 35.4 0.00 0.00 0.00 50 1004.5
20260505152720 7 248 17.7 24.1 0.00 0.00 0.00 52 1004.3
20260505150720 7 282 20.9 33.8 0.00 0.00 0.00 41 1004.3
20260505124719 6 258 32.2 40.2 0.00 0.00 0.00 48 1003.6
20260505122719 6 274 27.4 37.0 0.00 0.00 0.00 54 1003.6
20260505120719 6 277 29.0 40.2 0.00 0.00 0.00 52 1003.5
20260505114719 6 247 29.0 38.6 0.00 0.00 0.00 44 1003.1
20260505112719 6 264 30.6 38.6 0.00 0.00 0.00 50 1003.1
20260505110719 6 269 33.8 41.8 0.00 0.00 0.00 53 1002.9
20260505100719 5 275 25.7 35.4 0.00 0.00 0.00 61 1002.4
20260505094718 4 258 30.6 54.7 0.00 0.00 0.00 73 1002.3
20260505092718 4 251 22.5 32.2 0.00 0.00 0.00 75 1002.2